Tracking 19638 objects as of 20-Apr-2019
HD Live streaming from Space Station
objects crossing your sky now

SRMSAT

Track SRMSAT now!
10-day predictions
SRMSAT is classified as:


NORAD ID: 37841
Int'l Code: 2011-058D
Perigee: 855.9 km
Apogee: 872.9 km
Inclination: 20.0 °
Period: 102.1 minutes
Semi major axis: 7235 km
RCS: 0.1933 m2 (medium)
Launch date: October 12, 2011
Source: India (IND)
Launch site: SRIHARIKOTA (SRI)

Uplink (MHz): 145.900
Downlink (MHz): 437.500
Beacon (MHz): 437.425
Mode: CW
Call sign:
Status: Active

aabbcc
Your satellite tracking list
Your tracking list is empty




NASA's NSSDC Master Catalog

Two Line Element Set (TLE):
1 37841U 11058D   19109.17831304 +.00000306 +00000-0 +23140-4 0  9998
2 37841 019.9730 037.2564 0011750 251.4131 251.1524 14.10629164388049
Source of the keplerian elements: Caltech